Regional Weather Roundup
Issued by NWS Green Bay, WI

Home | Current Version | Previous Version | Graphics & Text | Print | Product List | Glossary Off
Versions: 1 2 3 4 5 6 7 8 9 10 11 12 13 14 15 16 17 18 19 20 21 22 23 24 25 26 27 28 29 30 31 32 33 34 35 36 37 38 39 40 41 42 43 44 45 46 47 48 49 50

000
ASUS43 KGRB 240411
RWRGRB

NORTH-CENTRAL AND NORTHEAST WISCONSIN REGIONAL WEATHER ROUNDUP
NATIONAL WEATHER SERVICE GREEN BAY WI
1100 PM CDT MON APR 23 2018

WIZ005-009-010>012-018-019-240500-
NORTH CENTRAL WISCONSIN

CITY           SKY/WX    TMP DP  RH WIND       PRES   REMARKS
IRONWOOD       FAIR      38  33  82 CALM      30.12S
MANITOWISH WTR FAIR      34  27  73 CALM      30.13S
ARBOR VITAE    FAIR      39  28  62 CALM      30.13S
EAGLE RIVER    FAIR      36  26  66 CALM      30.12F
LAND O LAKES   FAIR      33  24  70 CALM      30.15S
RHINELANDER    FAIR      38  28  67 W3        30.13F
PHILLIPS       FAIR      38  29  72 CALM      30.13S
ANTIGO         FAIR      44  28  53 CALM      30.15S
TOMAHAWK       FAIR      34  26  71 CALM      30.14S
MERRILL        FAIR      37  28  68 CALM      30.14S
$$

WIZ013-073-240500-
NORTHEAST WISCONSIN

CITY           SKY/WX    TMP DP  RH WIND       PRES   REMARKS
IRON MOUNTAIN  FAIR      43  27  53 CALM      30.12S
MARINETTE      NOT AVBL
OCONTO         FAIR      36  27  70 CALM      30.13F
$$

WIZ017-030-035>037-045-240500-
CENTRAL WISCONSIN

CITY           SKY/WX    TMP DP  RH WIND       PRES   REMARKS
MEDFORD        FAIR      38  32  78 CALM      30.13S
WAUSAU         FAIR      46  28  49 E3        30.12S
MOSINEE        FAIR      46  21  36 SE5       30.14S
MARSHFIELD     FAIR      46  30  53 CALM      30.12S
WISC RAPIDS    FAIR      41  25  53 CALM      30.14F
STEVENS POINT  FAIR      37  25  62 CALM      30.14F
WAUPACA        FAIR      41  32  69 CALM      30.14F
SHAWANO        FAIR      41  32  71 CALM      30.13F
CLINTONVILLE   FAIR      42  29  60 CALM      30.13F
WAUTOMA        FAIR      39  29  67 CALM      30.14F
$$

WIZ038-039-048-051-240500-
FOX VALLEY

CITY           SKY/WX    TMP DP  RH WIND       PRES   REMARKS
NWS GREEN BAY  FAIR      47  37  68 CALM      30.13F
APPLETON       CLEAR     48  28  46 VRB3      30.12F
OSHKOSH        FAIR      46  34  62 CALM      30.13F
FOND DU LAC    FAIR      45  35  68 NW3       30.13S
$$

WIZ022-050-052-240500-
EAST CENTRAL WISCONSIN

CITY           SKY/WX    TMP DP  RH WIND       PRES   REMARKS
EPHRAIM        FAIR      44  27  50 SE3       30.13F
WASHINGTON ISL FAIR      40  28  63 CALM      30.13F
STURGEON BAY   FAIR      46  28  49 E6        30.14F
MANITOWOC      FAIR      45  31  58 N5        30.14F
SHEBOYGAN      FAIR      47  28  47 NE7       30.12F
$$

LMZ563-521-522-541>543-240500-
LAKESHORE

STATION/POSITION TIME  TEMP    WIND        PRES    VSBY  WAVE
                       AIR SEA DIR/SP/G                  HT/PER
                 (UTC) (F)     (DEG/KT/KT) (MB)    (MI)  (FT/S)
SHEBOYGAN LKSHOR 0400   46     360/ 12/ 15 1020.1F
KEWAUNEE LKSHORE 0348   46     340/  3/  5 1019.9F
NORTHPORT PIER   0340   42                 1020.7F
SISTER BAY LKSHO 0357   42        CALM       N/A
MENOMINEE LKSHOR 0348   35      10/  3/  3 1020.2F
$$




USA.gov is the U.S. government's official web portal to all federal, state and local government web resources and services.